Showing default

COSMOS 2432 (GLONASS), 32276

Orbit data source: Space-Track

COSMOS 2432 (GLONASS), 32276 is a Commonwealth of Independent States-origin payload satellite in MEO that was launched on Fri, 26 Oct 2007 UTC via a PROTON-K/DM-2 launch vehicle from the Tyuratam Missile And Space Complex (TTMTR). Payload-class satellites include a variety of spacecraft equipped with specific instruments for various scientific and technological missions. These include communications satellites like Starlink; space stations such as the ISS; scientific satellites like the Hubble; Earth observation satellites from companies like Planet Labs, Umbra, and HawkEye 360; GPS; miniature CubeSats for education and research; and military/defense satellites.

Loading next visibility...
Identifier
32276, 2007-052B
Orbit
MEO
Last TLE update
10 hours ago
Origin
Manufacturer
Resehetnev ISS
Mission
Operational Defense Navigation
Bus & Motor
URAGAN, Unknown motor
Mass
1,450 kg wet, ~1,200 kg dry
Launch date (UTC)
2007-10-26 (18 years ago)
Launch vehicle
PROTON-K/DM-2
Launch site
Tyuratam Missile And Space Complex (TTMTR)
Object type
Payload
Rocket body
Debris
Shape & HBR
Cyl + 1 Ant + 2 Pan, 7.8 m
Radar Cross Section
8.467 m², Large (>1 m²)

Expand to show TLE details & history

TLE from 10 hours ago
0 COSMOS 2432 (GLONASS)
1 32276U 07052B   25186.73417104 -.00000076  00000-0  00000+0 0  9996
2 32276  65.7830 327.6946 0007726 327.6913  77.8256  2.13103274137718
Epoch: 2025-07-05T17:37Z
TLE epoch observation values (Epoch: 2025-07-05T17:37:12.377Z)
Latitude
40.72265°
Longitude
162.15136°
Altitude
19,130.104 km
Speed
3.954 km/s
True Right ascension
23h 21m 41s
True Declination
40° 40' 31"
Sunlit
Object was in daylight at epoch
Visualization orbit readout
Latitude
2.83789°
Longitude
140.67179°
Altitude
19,113.986 km
Speed
3.956 km/s
Apparent Right ascension
22h 38m 10s
Apparent Declination
-6° 03' 52"
Sunlit
Object is in daylight
Visualization observer readout
Local Sidereal Time
15:30:15
Azimuth
83.682° E
Elevation
-16.889°
Doppler factor
1
Orbital elements
Apogee altitude
19,149.081 km
Perigee altitude
19,109.667 km
Semi-major axis
25,507.511 km
Eccentricity
0.00077
Inclination
65.783°
RAAN
327.6946°
Arg. of periapsis
327.6913°
True anomaly
Unknown
Mean anomaly
77.8256°
Eccentric anomaly
Unknown
Mean motion
0.53277 °/min
Orbital period
675.71 mins
BSTAR
0
Loading maneuver chart data...
Loading SW <> Apogee altitude chart data...
Loading historical data...
Loading historical data...
Loading historical data...
Loading historical data...
Loading historical data...
Loading historical data...
Loading historical data...

COSMOS 2432 (GLONASS) Visibility forecast

Observer location: undefined°, undefined°

Span
Click to sort rows by Start time (UTC) header in descending order
Start Az.
Max El. time (UTC)
Max El. Az.
Max El.
End time (UTC)
End Az.
344 mins2025-07-06 15:23:13.927Z275.45° WNW2025-07-06 18:42:13.927Z58.451° ENE43.179°2025-07-06 21:07:13.927Z158.107° S
|